Regional Weather Roundup
Issued by NWS

Home | Current Version | Previous Version | Text Only | Print | Product List | Glossary On
Versions: 1 2 3 4 5 6 7 8 9 10 11 12 13 14 15 16 17 18 19 20 21 22 23 24 25 26 27 28 29 30 31 32 33 34 35 36 37 38 39 40 41 42 43 44 45 46 47 48 49 50
000
ASUS44 KMEG 262010
RWRTN
TENNESSEE HOURLY STATE WEATHER ROUNDUP
NATIONAL WEATHER SERVICE MEMPHIS TN
200 PM CST FRI DEC 26 2014

TNZ002-004-019-021-049-052-054-088>092-262100-
WEST TENNESSEE

CITY           SKY/WX    TMP DP  RH WIND       PRES   REMARKS
MEMPHIS INTL   CLOUDY    55  37  50 S10       30.18S
NWS MEMPHIS      N/A     55 N/A N/A MISG        N/A
JACKSON        CLOUDY    53  38  56 SE5       30.19F
DYERSBURG      PTSUNNY   52  34  50 S9        30.19R
UNION CITY     SUNNY     52  41  66 S12       30.15F
PARIS          SUNNY     50  39  66 S6        30.19S
LEXINGTON      SUNNY     52  37  58 S7        30.20F
SAVANNAH       SUNNY     48  39  71 S7        30.23S
$$

TNZ008-025-027-028-033-062-065-066-262100-
NORTH MIDDLE TENNESSEE

CITY           SKY/WX    TMP DP  RH WIND       PRES   REMARKS
NASHVILLE      PTSUNNY   54  38  54 SE10      30.22F
CLARKSVILLE    MOSUNNY   57  40  52 S12       30.19F
SMYRNA         CLOUDY    52  39  61 S7        30.25F
COOKEVILLE     SUNNY     52  37  58 CALM      30.23F
CROSSVILLE     MOSUNNY   50  34  54 S7        30.25F
$$

TNZ061-075-076-078-094-096-097-262100-
SOUTH MIDDLE TENNESSEE

CITY           SKY/WX    TMP DP  RH WIND       PRES   REMARKS
FAYETTEVILLE   SUNNY     48  36  61 MISG      30.24F
TULLAHOMA      SUNNY     48  36  61 S5        30.25S
WINCHESTER     SUNNY     50  39  66 SE6       30.26R
MCMINNVILLE    SUNNY     52  37  58 CALM      30.24R
COLUMBIA       SUNNY     48  45  87 S7        30.21F
SHELBYVILLE    SUNNY     50  39  66 S8        30.25S
$$

TNZ017-018-042-046-047-262100-
NORTHEAST TENNESSEE

CITY           SKY/WX    TMP DP  RH WIND       PRES   REMARKS
TRI CITIES     MOSUNNY   54  26  34 CALM      30.27S
ELIZABETHTON   CLEAR     55  21  26 W6        30.26S
$$

TNZ012-013-036-069-073-074-262100-
CENTRAL EAST TENNESSEE

CITY           SKY/WX    TMP DP  RH WIND       PRES   REMARKS
KNOXVILLE      CLOUDY    49  34  56 NW5       30.29F
OAK RIDGE      CLOUDY    51  35  54 VRB3      30.30F
GATLINBURG     CLEAR     48  34  57 VRB5      30.28F
MORRISTOWN     CLEAR     52  34  50 CALM      30.29S
$$

TNZ083-085-099-262100-
SOUTHEAST TENNESSEE

CITY           SKY/WX    TMP DP  RH WIND       PRES   REMARKS
CHATTANOOGA    CLOUDY    51  37  58 NE5       30.28F
$$

SKY/WX REPORTED AS FAIR MEANS FEW OR NO CLOUDS BELOW
12 THOUSAND FEET.




USA.gov is the U.S. government's official web portal to all federal, state and local government web resources and services.